Year,Month,Day,Hour,Minute,Value (Times are PST for temperature in C)
2008,07,16,00,00,14.30
2008,07,16,00,01,14.20
2008,07,16,00,02,14.20
2008,07,16,00,03,14.20
2008,07,16,00,04,14.20
2008,07,16,00,05,14.10
2008,07,16,00,06,14.10
2008,07,16,00,07,14.00
2008,07,16,00,08,14.00
2008,07,16,00,09,13.90
2008,07,16,00,10,13.90
2008,07,16,00,11,13.90
2008,07,16,00,12,13.90
2008,07,16,00,13,13.90
2008,07,16,00,14,13.90
2008,07,16,00,15,13.80
2008,07,16,00,16,13.80
2008,07,16,00,17,13.80
2008,07,16,00,18,13.80
2008,07,16,00,19,13.80
2008,07,16,00,20,13.70
2008,07,16,00,21,13.70
2008,07,16,00,22,13.70
2008,07,16,00,23,13.70
2008,07,16,00,24,13.70
2008,07,16,00,25,13.60
2008,07,16,00,26,13.60
2008,07,16,00,27,13.60
2008,07,16,00,28,13.50
2008,07,16,00,29,13.40
2008,07,16,00,30,13.40
2008,07,16,00,31,13.40
2008,07,16,00,32,13.30
2008,07,16,00,33,13.30
2008,07,16,00,34,13.30
2008,07,16,00,35,13.30
2008,07,16,00,36,13.20
2008,07,16,00,37,13.20
2008,07,16,00,38,13.20
2008,07,16,00,39,13.10
2008,07,16,00,40,13.10
2008,07,16,00,41,13.10
2008,07,16,00,42,13.10
2008,07,16,00,43,13.10
2008,07,16,00,44,13.10
2008,07,16,00,45,13.00
2008,07,16,00,46,13.00
2008,07,16,00,47,13.00
2008,07,16,00,48,13.00
2008,07,16,00,49,13.00
2008,07,16,00,50,13.00
2008,07,16,00,51,13.00
2008,07,16,00,52,13.00
2008,07,16,00,53,13.00
2008,07,16,00,54,13.00
2008,07,16,00,55,13.00
2008,07,16,00,56,13.00
2008,07,16,00,57,13.10
2008,07,16,00,58,13.10
2008,07,16,00,59,13.10
2008,07,16,01,00,13.10
2008,07,16,01,01,13.10
2008,07,16,01,02,13.10
2008,07,16,01,03,13.00
2008,07,16,01,04,13.00
2008,07,16,01,05,13.00
2008,07,16,01,06,13.00
2008,07,16,01,07,13.00
2008,07,16,01,08,13.10
2008,07,16,01,09,13.10
2008,07,16,01,10,13.20
2008,07,16,01,11,13.20
2008,07,16,01,12,13.20
2008,07,16,01,13,13.30
2008,07,16,01,14,13.30
2008,07,16,01,15,13.30
2008,07,16,01,16,13.30
2008,07,16,01,17,13.40
2008,07,16,01,18,13.40
2008,07,16,01,19,13.40
2008,07,16,01,20,13.40
2008,07,16,01,21,13.40
2008,07,16,01,22,13.40
2008,07,16,01,23,13.40
2008,07,16,01,24,13.40
2008,07,16,01,25,13.40
2008,07,16,01,26,13.40
2008,07,16,01,27,13.40
2008,07,16,01,28,13.40
2008,07,16,01,29,13.40
2008,07,16,01,30,13.40
2008,07,16,01,31,13.40
2008,07,16,01,32,13.40
2008,07,16,01,33,13.40
2008,07,16,01,34,13.40
2008,07,16,01,35,13.30
2008,07,16,01,36,13.30
2008,07,16,01,37,13.30
2008,07,16,01,38,13.30
2008,07,16,01,39,13.30
2008,07,16,01,40,13.30
2008,07,16,01,41,13.20
2008,07,16,01,42,13.20
2008,07,16,01,43,13.20
2008,07,16,01,44,13.20
2008,07,16,01,45,13.10
2008,07,16,01,46,13.10
2008,07,16,01,47,13.10
2008,07,16,01,48,13.10
2008,07,16,01,49,13.00
2008,07,16,01,50,13.00
2008,07,16,01,51,13.00
2008,07,16,01,52,13.00
2008,07,16,01,53,12.90
2008,07,16,01,54,12.90
2008,07,16,01,55,12.90
2008,07,16,01,56,12.80
2008,07,16,01,57,12.80
2008,07,16,01,58,12.80
2008,07,16,01,59,12.80
2008,07,16,02,00,12.70
2008,07,16,02,01,12.70
2008,07,16,02,02,12.70
2008,07,16,02,03,12.70
2008,07,16,02,04,12.60
2008,07,16,02,05,12.60
2008,07,16,02,06,12.60
2008,07,16,02,07,12.60
2008,07,16,02,08,12.50
2008,07,16,02,09,12.50
2008,07,16,02,10,12.50
2008,07,16,02,11,12.50
2008,07,16,02,12,12.50
2008,07,16,02,13,12.50
2008,07,16,02,14,12.50
2008,07,16,02,15,12.40
2008,07,16,02,16,12.40
2008,07,16,02,17,12.40
2008,07,16,02,18,12.40
2008,07,16,02,19,12.40
2008,07,16,02,20,12.40
2008,07,16,02,21,12.30
2008,07,16,02,22,12.30
2008,07,16,02,23,12.30
2008,07,16,02,24,12.30
2008,07,16,02,25,12.30
2008,07,16,02,26,12.30
2008,07,16,02,27,12.30
2008,07,16,02,28,12.30
2008,07,16,02,29,12.30
2008,07,16,02,30,12.30
2008,07,16,02,31,12.30
2008,07,16,02,32,12.30
2008,07,16,02,33,12.30
2008,07,16,02,34,12.30
2008,07,16,02,35,12.30
2008,07,16,02,36,12.30
2008,07,16,02,37,12.30
2008,07,16,02,38,12.40
2008,07,16,02,39,12.30
2008,07,16,02,40,12.30
2008,07,16,02,41,12.30
2008,07,16,02,42,12.30
2008,07,16,02,43,12.30
2008,07,16,02,44,12.30
2008,07,16,02,45,12.30
2008,07,16,02,46,12.30
2008,07,16,02,47,12.30
2008,07,16,02,48,12.30
2008,07,16,02,49,12.30
2008,07,16,02,50,12.30
2008,07,16,02,51,12.30
2008,07,16,02,52,12.30
2008,07,16,02,53,12.30
2008,07,16,02,54,12.20
2008,07,16,02,55,12.20
2008,07,16,02,56,12.20
2008,07,16,02,57,12.20
2008,07,16,02,58,12.20
2008,07,16,02,59,12.20
2008,07,16,03,00,12.20
2008,07,16,03,01,12.20
2008,07,16,03,02,12.20
2008,07,16,03,03,12.20
2008,07,16,03,04,12.20
2008,07,16,03,05,12.20
2008,07,16,03,06,12.20
2008,07,16,03,07,12.20
2008,07,16,03,08,12.20
2008,07,16,03,09,12.20
2008,07,16,03,10,12.20
2008,07,16,03,11,12.20
2008,07,16,03,12,12.20
2008,07,16,03,13,12.20
2008,07,16,03,14,12.20
2008,07,16,03,15,12.20
2008,07,16,03,16,12.20
2008,07,16,03,17,12.20
2008,07,16,03,18,12.20
2008,07,16,03,19,12.20
2008,07,16,03,20,12.10
2008,07,16,03,21,12.10
2008,07,16,03,22,12.10
2008,07,16,03,23,12.10
2008,07,16,03,24,12.00
2008,07,16,03,25,12.00
2008,07,16,03,26,12.00
2008,07,16,03,27,11.90
2008,07,16,03,28,11.90
2008,07,16,03,29,11.90
2008,07,16,03,30,11.80
2008,07,16,03,31,11.80
2008,07,16,03,32,11.80
2008,07,16,03,33,11.80
2008,07,16,03,34,11.80
2008,07,16,03,35,11.70
2008,07,16,03,36,11.70
2008,07,16,03,37,11.70
2008,07,16,03,38,11.70
2008,07,16,03,39,11.70
2008,07,16,03,40,11.70
2008,07,16,03,41,11.70
2008,07,16,03,42,11.70
2008,07,16,03,43,11.70
2008,07,16,03,44,11.70
2008,07,16,03,45,11.70
2008,07,16,03,46,11.70
2008,07,16,03,47,11.70
2008,07,16,03,48,11.70
2008,07,16,03,49,11.70
2008,07,16,03,50,11.70
2008,07,16,03,51,11.70
2008,07,16,03,52,11.70
2008,07,16,03,53,11.70
2008,07,16,03,54,11.70
2008,07,16,03,55,11.70
2008,07,16,03,56,11.70
2008,07,16,03,57,11.70
2008,07,16,03,58,11.60
2008,07,16,03,59,11.60
2008,07,16,04,00,11.60
2008,07,16,04,01,11.60
2008,07,16,04,02,11.60
2008,07,16,04,03,11.50
2008,07,16,04,04,11.50
2008,07,16,04,05,11.50
2008,07,16,04,06,11.40
2008,07,16,04,07,11.40
2008,07,16,04,08,11.40
2008,07,16,04,09,11.40
2008,07,16,04,10,11.40
2008,07,16,04,11,11.30
2008,07,16,04,12,11.30
2008,07,16,04,13,11.30
2008,07,16,04,14,11.30
2008,07,16,04,15,11.20
2008,07,16,04,16,11.20
2008,07,16,04,17,11.20
2008,07,16,04,18,11.20
2008,07,16,04,19,11.10
2008,07,16,04,20,11.10
2008,07,16,04,21,11.10
2008,07,16,04,22,11.10
2008,07,16,04,23,11.10
2008,07,16,04,24,11.00
2008,07,16,04,25,11.10
2008,07,16,04,26,11.10
2008,07,16,04,27,11.10
2008,07,16,04,28,11.10
2008,07,16,04,29,11.10
2008,07,16,04,30,11.10
2008,07,16,04,31,11.10
2008,07,16,04,32,11.10
2008,07,16,04,33,11.10
2008,07,16,04,34,11.10
2008,07,16,04,35,11.10
2008,07,16,04,36,11.10
2008,07,16,04,37,11.10
2008,07,16,04,38,11.10
2008,07,16,04,39,11.10
2008,07,16,04,40,11.10
2008,07,16,04,41,11.10
2008,07,16,04,42,11.10
2008,07,16,04,43,11.20
2008,07,16,04,44,11.20
2008,07,16,04,45,11.20
2008,07,16,04,46,11.20
2008,07,16,04,47,11.30
2008,07,16,04,48,11.30
2008,07,16,04,49,11.30
2008,07,16,04,50,11.30
2008,07,16,04,51,11.30
2008,07,16,04,52,11.30
2008,07,16,04,53,11.30
2008,07,16,04,54,11.30
2008,07,16,04,55,11.30
2008,07,16,04,56,11.30
2008,07,16,04,57,11.30
2008,07,16,04,58,11.30
2008,07,16,04,59,11.30
2008,07,16,05,00,11.20
2008,07,16,05,01,11.20
2008,07,16,05,02,11.20
2008,07,16,05,03,11.20
2008,07,16,05,04,11.20
2008,07,16,05,05,11.20
2008,07,16,05,06,11.20
2008,07,16,05,07,11.20
2008,07,16,05,08,11.20
2008,07,16,05,09,11.20
2008,07,16,05,10,11.20
2008,07,16,05,11,11.20
2008,07,16,05,12,11.10
2008,07,16,05,13,11.10
2008,07,16,05,14,11.10
2008,07,16,05,15,11.10
2008,07,16,05,16,11.10
2008,07,16,05,17,11.10
2008,07,16,05,18,11.10
2008,07,16,05,19,11.10
2008,07,16,05,20,11.10
2008,07,16,05,21,11.00
2008,07,16,05,22,11.00
2008,07,16,05,23,11.00
2008,07,16,05,24,11.00
2008,07,16,05,25,10.90
2008,07,16,05,26,10.90
2008,07,16,05,27,10.90
2008,07,16,05,28,10.90
2008,07,16,05,29,10.80
2008,07,16,05,30,10.80
2008,07,16,05,31,10.80
2008,07,16,05,32,10.80
2008,07,16,05,33,10.80
2008,07,16,05,34,10.80
2008,07,16,05,35,10.70
2008,07,16,05,36,10.70
2008,07,16,05,37,10.70
2008,07,16,05,38,10.70
2008,07,16,05,39,10.70
2008,07,16,05,40,10.70
2008,07,16,05,41,10.60
2008,07,16,05,42,10.60
2008,07,16,05,43,10.60
2008,07,16,05,44,10.60
2008,07,16,05,45,10.60
2008,07,16,05,46,10.60
2008,07,16,05,47,10.60
2008,07,16,05,48,10.60
2008,07,16,05,49,10.60
2008,07,16,05,50,10.60
2008,07,16,05,51,10.60
2008,07,16,05,52,10.60
2008,07,16,05,53,10.60
2008,07,16,05,54,10.60
2008,07,16,05,55,10.60
2008,07,16,05,56,10.60
2008,07,16,05,57,10.60
2008,07,16,05,58,10.60
2008,07,16,05,59,10.60
2008,07,16,06,00,10.60
2008,07,16,06,01,10.60
2008,07,16,06,02,10.60
2008,07,16,06,03,10.60
2008,07,16,06,04,10.70
2008,07,16,06,05,10.70
2008,07,16,06,06,10.70
2008,07,16,06,07,10.70
2008,07,16,06,08,10.80
2008,07,16,06,09,10.80
2008,07,16,06,10,10.80
2008,07,16,06,11,10.80
2008,07,16,06,12,10.90
2008,07,16,06,13,10.90
2008,07,16,06,14,10.90
2008,07,16,06,15,10.90
2008,07,16,06,16,11.00
2008,07,16,06,17,11.00
2008,07,16,06,18,11.00
2008,07,16,06,19,11.10
2008,07,16,06,20,11.10
2008,07,16,06,21,11.10
2008,07,16,06,22,11.10
2008,07,16,06,23,11.10
2008,07,16,06,24,11.10
2008,07,16,06,25,11.10
2008,07,16,06,26,11.10
2008,07,16,06,27,11.10
2008,07,16,06,28,11.10
2008,07,16,06,29,11.20
2008,07,16,06,30,11.20
2008,07,16,06,31,11.20
2008,07,16,06,32,11.20
2008,07,16,06,33,11.20
2008,07,16,06,34,11.30
2008,07,16,06,35,11.30
2008,07,16,06,36,11.30
2008,07,16,06,37,11.40
2008,07,16,06,38,11.50
2008,07,16,06,39,11.60
2008,07,16,06,40,11.60
2008,07,16,06,41,11.70
2008,07,16,06,42,11.80
2008,07,16,06,43,11.80
2008,07,16,06,44,11.80
2008,07,16,06,45,11.90
2008,07,16,06,46,11.90
2008,07,16,06,47,12.00
2008,07,16,06,48,12.00
2008,07,16,06,49,12.10
2008,07,16,06,50,12.10
2008,07,16,06,51,12.20
2008,07,16,06,52,12.20
2008,07,16,06,53,12.30
2008,07,16,06,54,12.30
2008,07,16,06,55,12.30
2008,07,16,06,56,12.40
2008,07,16,06,57,12.40
2008,07,16,06,58,12.40
2008,07,16,06,59,12.50
2008,07,16,07,00,12.50
2008,07,16,07,01,12.60
2008,07,16,07,02,12.60
2008,07,16,07,03,12.60
2008,07,16,07,04,12.70
2008,07,16,07,05,12.70
2008,07,16,07,06,12.70
2008,07,16,07,07,12.70
2008,07,16,07,08,12.80
2008,07,16,07,09,12.80
2008,07,16,07,10,12.90
2008,07,16,07,11,12.90
2008,07,16,07,12,13.00
2008,07,16,07,13,13.00
2008,07,16,07,14,13.10
2008,07,16,07,15,13.10
2008,07,16,07,16,13.20
2008,07,16,07,17,13.20
2008,07,16,07,18,13.30
2008,07,16,07,19,13.30
2008,07,16,07,20,13.40
2008,07,16,07,21,13.40
2008,07,16,07,22,13.40
2008,07,16,07,23,13.40
2008,07,16,07,24,13.50
2008,07,16,07,25,13.60
2008,07,16,07,26,13.60
2008,07,16,07,27,13.70
2008,07,16,07,28,13.70
2008,07,16,07,29,13.80
2008,07,16,07,30,13.80
2008,07,16,07,31,13.80
2008,07,16,07,32,13.90
2008,07,16,07,33,13.90
2008,07,16,07,34,14.00
2008,07,16,07,35,14.10
2008,07,16,07,36,14.10
2008,07,16,07,37,14.20
2008,07,16,07,38,14.20
2008,07,16,07,39,14.30
2008,07,16,07,40,14.30
2008,07,16,07,41,14.40
2008,07,16,07,42,14.40
2008,07,16,07,43,14.50
2008,07,16,07,44,14.50
2008,07,16,07,45,14.60
2008,07,16,07,46,14.60
2008,07,16,07,47,14.70
2008,07,16,07,48,14.70
2008,07,16,07,49,14.80
2008,07,16,07,50,14.80
2008,07,16,07,51,15.00
2008,07,16,07,52,15.00
2008,07,16,07,53,15.00
2008,07,16,07,54,15.00
2008,07,16,07,55,15.00
2008,07,16,07,56,15.00
2008,07,16,07,57,15.00
2008,07,16,07,58,15.10
2008,07,16,07,59,15.20
2008,07,16,08,00,15.30
2008,07,16,08,01,15.30
2008,07,16,08,02,15.40
2008,07,16,08,03,15.40
2008,07,16,08,04,15.50
2008,07,16,08,05,15.60
2008,07,16,08,06,15.60
2008,07,16,08,07,15.70
2008,07,16,08,08,15.80
2008,07,16,08,09,15.80
2008,07,16,08,10,15.90
2008,07,16,08,11,15.90
2008,07,16,08,12,16.00
2008,07,16,08,13,16.00
2008,07,16,08,14,16.10
2008,07,16,08,15,16.10
2008,07,16,08,16,16.10
2008,07,16,08,17,16.10
2008,07,16,08,18,16.20
2008,07,16,08,19,16.20
2008,07,16,08,20,16.30
2008,07,16,08,21,16.30
2008,07,16,08,22,16.40
2008,07,16,08,23,16.40
2008,07,16,08,24,16.50
2008,07,16,08,25,16.60
2008,07,16,08,26,16.70
2008,07,16,08,27,16.80
2008,07,16,08,28,16.90
2008,07,16,08,29,17.00
2008,07,16,08,30,17.10
2008,07,16,08,31,17.20
2008,07,16,08,32,17.30
2008,07,16,08,33,17.30
2008,07,16,08,34,17.50
2008,07,16,08,35,17.60
2008,07,16,08,36,17.70
2008,07,16,08,37,17.70
2008,07,16,08,38,17.80
2008,07,16,08,39,17.90
2008,07,16,08,40,18.00
2008,07,16,08,41,18.00
2008,07,16,08,42,18.10
2008,07,16,08,43,18.20
2008,07,16,08,44,18.30
2008,07,16,08,45,18.30
2008,07,16,08,46,18.40
2008,07,16,08,47,18.50
2008,07,16,08,48,18.60
2008,07,16,08,49,18.70
2008,07,16,08,50,18.80
2008,07,16,08,51,18.80
2008,07,16,08,52,18.90
2008,07,16,08,53,19.00
2008,07,16,08,54,19.10
2008,07,16,08,55,19.10
2008,07,16,08,56,19.20
2008,07,16,08,57,19.20
2008,07,16,08,58,19.30
2008,07,16,08,59,19.30
2008,07,16,09,00,19.40
2008,07,16,09,01,19.40
2008,07,16,09,02,19.50
2008,07,16,09,03,19.50
2008,07,16,09,04,19.60
2008,07,16,09,05,19.60
2008,07,16,09,06,19.70
2008,07,16,09,07,19.70
2008,07,16,09,08,19.70
2008,07,16,09,09,19.90
2008,07,16,09,10,19.90
2008,07,16,09,11,20.00
2008,07,16,09,12,20.10
2008,07,16,09,13,20.20
2008,07,16,09,14,20.30
2008,07,16,09,15,20.30
2008,07,16,09,16,20.40
2008,07,16,09,17,20.40
2008,07,16,09,18,20.50
2008,07,16,09,19,20.60
2008,07,16,09,20,20.60
2008,07,16,09,21,20.60
2008,07,16,09,22,20.60
2008,07,16,09,23,20.60
2008,07,16,09,24,20.60
2008,07,16,09,25,20.70
2008,07,16,09,26,20.70
2008,07,16,09,27,20.70
2008,07,16,09,28,20.70
2008,07,16,09,29,20.70
2008,07,16,09,30,20.70
2008,07,16,09,31,20.70
2008,07,16,09,32,20.80
2008,07,16,09,33,20.80
2008,07,16,09,34,20.80
2008,07,16,09,35,20.90
2008,07,16,09,36,20.80
2008,07,16,09,37,20.80
2008,07,16,09,38,20.80
2008,07,16,09,39,20.80
2008,07,16,09,40,20.90
2008,07,16,09,41,20.90
2008,07,16,09,42,21.00
2008,07,16,09,43,21.00
2008,07,16,09,44,21.00
2008,07,16,09,45,21.10
2008,07,16,09,46,21.20
2008,07,16,09,47,21.10
2008,07,16,09,48,21.00
2008,07,16,09,49,20.80
2008,07,16,09,50,20.80
2008,07,16,09,51,20.70
2008,07,16,09,52,20.70
2008,07,16,09,53,20.60
2008,07,16,09,54,20.60
2008,07,16,09,55,20.70
2008,07,16,09,56,20.70
2008,07,16,09,57,20.80
2008,07,16,09,58,20.80
2008,07,16,09,59,21.00
2008,07,16,10,00,21.10
2008,07,16,10,01,21.10
2008,07,16,10,02,21.10
2008,07,16,10,03,21.20
2008,07,16,10,04,21.20
2008,07,16,10,05,21.20
2008,07,16,10,06,21.20
2008,07,16,10,07,21.30
2008,07,16,10,08,21.30
2008,07,16,10,09,21.40
2008,07,16,10,10,21.40
2008,07,16,10,11,21.50
2008,07,16,10,12,21.60
2008,07,16,10,13,21.60
2008,07,16,10,14,21.60
2008,07,16,10,15,21.40
2008,07,16,10,16,21.40
2008,07,16,10,17,21.30
2008,07,16,10,18,21.30
2008,07,16,10,19,21.20
2008,07,16,10,20,21.20
2008,07,16,10,21,21.20
2008,07,16,10,22,21.20
2008,07,16,10,23,21.20
2008,07,16,10,24,21.20
2008,07,16,10,25,21.10
2008,07,16,10,26,21.10
2008,07,16,10,27,21.10
2008,07,16,10,28,21.20
2008,07,16,10,29,21.10
2008,07,16,10,30,21.00
2008,07,16,10,31,20.90
2008,07,16,10,32,20.90
2008,07,16,10,33,20.90
2008,07,16,10,34,20.90
2008,07,16,10,35,21.00
2008,07,16,10,36,21.10
2008,07,16,10,37,21.10
2008,07,16,10,38,21.10
2008,07,16,10,39,21.10
2008,07,16,10,40,21.10
2008,07,16,10,41,21.00
2008,07,16,10,42,21.00
2008,07,16,10,43,21.00
2008,07,16,10,44,21.00
2008,07,16,10,45,21.10
2008,07,16,10,46,21.20
2008,07,16,10,47,21.40
2008,07,16,10,48,21.50
2008,07,16,10,49,21.70
2008,07,16,10,50,21.80
2008,07,16,10,51,22.00
2008,07,16,10,52,22.10
2008,07,16,10,53,22.10
2008,07,16,10,54,22.20
2008,07,16,10,55,22.30
2008,07,16,10,56,22.40
2008,07,16,10,57,22.50
2008,07,16,10,58,22.40
2008,07,16,10,59,22.40
2008,07,16,11,00,22.30
2008,07,16,11,01,22.20
2008,07,16,11,02,22.10
2008,07,16,11,03,22.10
2008,07,16,11,04,22.10
2008,07,16,11,05,22.20
2008,07,16,11,06,22.20
2008,07,16,11,07,22.20
2008,07,16,11,08,22.10
2008,07,16,11,09,21.90
2008,07,16,11,10,21.80
2008,07,16,11,11,21.70
2008,07,16,11,12,21.80
2008,07,16,11,13,21.70
2008,07,16,11,14,21.70
2008,07,16,11,15,21.70
2008,07,16,11,16,21.80
2008,07,16,11,17,22.00
2008,07,16,11,18,22.00
2008,07,16,11,19,22.00
2008,07,16,11,20,21.90
2008,07,16,11,21,21.80
2008,07,16,11,22,21.50
2008,07,16,11,23,21.40
2008,07,16,11,24,21.40
2008,07,16,11,25,21.30
2008,07,16,11,26,21.20
2008,07,16,11,27,21.20
2008,07,16,11,28,21.10
2008,07,16,11,29,21.10
2008,07,16,11,30,21.10
2008,07,16,11,31,21.10
2008,07,16,11,32,21.10
2008,07,16,11,33,21.00
2008,07,16,11,34,20.90
2008,07,16,11,35,20.80
2008,07,16,11,36,20.80
2008,07,16,11,37,20.70
2008,07,16,11,38,20.70
2008,07,16,11,39,20.60
2008,07,16,11,40,20.60
2008,07,16,11,41,20.60
2008,07,16,11,42,20.70
2008,07,16,11,43,20.80
2008,07,16,11,44,20.90
2008,07,16,11,45,21.00
2008,07,16,11,46,20.90
2008,07,16,11,47,20.90
2008,07,16,11,48,20.80
2008,07,16,11,49,20.90
2008,07,16,11,50,20.90
2008,07,16,11,51,21.00
2008,07,16,11,52,21.00
2008,07,16,11,53,21.10
2008,07,16,11,54,21.20
2008,07,16,11,55,21.20
2008,07,16,11,56,21.30
2008,07,16,11,57,21.30
2008,07,16,11,58,21.30
2008,07,16,11,59,21.30
2008,07,16,12,00,21.20
2008,07,16,12,01,21.10
2008,07,16,12,02,21.00
2008,07,16,12,03,20.90
2008,07,16,12,04,21.00
2008,07,16,12,05,20.90
2008,07,16,12,06,21.00
2008,07,16,12,07,21.00
2008,07,16,12,08,21.10
2008,07,16,12,09,21.20
2008,07,16,12,10,21.20
2008,07,16,12,11,21.40
2008,07,16,12,12,21.60
2008,07,16,12,13,21.80
2008,07,16,12,14,21.80
2008,07,16,12,15,21.90
2008,07,16,12,16,21.90
2008,07,16,12,17,21.90
2008,07,16,12,18,22.00
2008,07,16,12,19,22.10
2008,07,16,12,20,22.20
2008,07,16,12,21,22.30
2008,07,16,12,22,22.30
2008,07,16,12,23,22.40
2008,07,16,12,24,22.50
2008,07,16,12,25,22.50
2008,07,16,12,26,22.40
2008,07,16,12,27,22.20
2008,07,16,12,28,22.10
2008,07,16,12,29,22.10
2008,07,16,12,30,22.10
2008,07,16,12,31,22.20
2008,07,16,12,32,22.30
2008,07,16,12,33,22.40
2008,07,16,12,34,22.50
2008,07,16,12,35,22.40
2008,07,16,12,36,22.20
2008,07,16,12,37,22.10
2008,07,16,12,38,21.90
2008,07,16,12,39,21.80
2008,07,16,12,40,21.80
2008,07,16,12,41,21.80
2008,07,16,12,42,21.80
2008,07,16,12,43,21.80
2008,07,16,12,44,21.70
2008,07,16,12,45,21.50
2008,07,16,12,46,21.50
2008,07,16,12,47,21.50
2008,07,16,12,48,21.60
2008,07,16,12,49,21.70
2008,07,16,12,50,21.70
2008,07,16,12,51,21.70
2008,07,16,12,52,21.70
2008,07,16,12,53,21.60
2008,07,16,12,54,21.60
2008,07,16,12,55,21.50
2008,07,16,12,56,21.50
2008,07,16,12,57,21.40
2008,07,16,12,58,21.30
2008,07,16,12,59,21.40
2008,07,16,13,00,21.40
2008,07,16,13,01,21.40
2008,07,16,13,02,21.40
2008,07,16,13,03,21.40
2008,07,16,13,04,21.40
2008,07,16,13,05,21.40
2008,07,16,13,06,21.40
2008,07,16,13,07,21.40
2008,07,16,13,08,21.40
2008,07,16,13,09,21.50
2008,07,16,13,10,21.60
2008,07,16,13,11,21.60
2008,07,16,13,12,21.70
2008,07,16,13,13,21.70
2008,07,16,13,14,21.80
2008,07,16,13,15,21.80
2008,07,16,13,16,21.80
2008,07,16,13,17,21.90
2008,07,16,13,18,21.90
2008,07,16,13,19,21.90
2008,07,16,13,20,22.00
2008,07,16,13,21,22.10
2008,07,16,13,22,22.20
2008,07,16,13,23,22.20
2008,07,16,13,24,22.30
2008,07,16,13,25,22.30
2008,07,16,13,26,22.30
2008,07,16,13,27,22.30
2008,07,16,13,28,22.40
2008,07,16,13,29,22.50
2008,07,16,13,30,22.40
2008,07,16,13,31,22.30
2008,07,16,13,32,22.10
2008,07,16,13,33,22.10
2008,07,16,13,34,22.10
2008,07,16,13,35,22.10
2008,07,16,13,36,22.20
2008,07,16,13,37,22.30
2008,07,16,13,38,22.30
2008,07,16,13,39,22.30
2008,07,16,13,40,22.30
2008,07,16,13,41,22.30
2008,07,16,13,42,22.40
2008,07,16,13,43,22.40
2008,07,16,13,44,22.40
2008,07,16,13,45,22.50
2008,07,16,13,46,22.60
2008,07,16,13,47,22.60
2008,07,16,13,48,22.80
2008,07,16,13,49,22.80
2008,07,16,13,50,22.90
2008,07,16,13,51,22.90
2008,07,16,13,52,23.00
2008,07,16,13,53,23.00
2008,07,16,13,54,23.10
2008,07,16,13,55,23.20
2008,07,16,13,56,23.30
2008,07,16,13,57,23.30
2008,07,16,13,58,23.40
2008,07,16,13,59,23.40
2008,07,16,14,00,23.40
2008,07,16,14,01,23.40
2008,07,16,14,02,23.40
2008,07,16,14,03,23.50
2008,07,16,14,04,23.60
2008,07,16,14,05,23.70
2008,07,16,14,06,23.70
2008,07,16,14,07,23.70
2008,07,16,14,08,23.70
2008,07,16,14,09,23.70
2008,07,16,14,10,23.80
2008,07,16,14,11,23.90
2008,07,16,14,12,23.90
2008,07,16,14,13,24.00
2008,07,16,14,14,24.10
2008,07,16,14,15,24.30
2008,07,16,14,16,24.40
2008,07,16,14,17,24.30
2008,07,16,14,18,24.20
2008,07,16,14,19,24.10
2008,07,16,14,20,24.10
2008,07,16,14,21,24.00
2008,07,16,14,22,23.90
2008,07,16,14,23,23.70
2008,07,16,14,24,23.60
2008,07,16,14,25,23.50
2008,07,16,14,26,23.60
2008,07,16,14,27,23.60
2008,07,16,14,28,23.60
2008,07,16,14,29,23.50
2008,07,16,14,30,23.40
2008,07,16,14,31,23.40
2008,07,16,14,32,23.40
2008,07,16,14,33,23.40
2008,07,16,14,34,23.50
2008,07,16,14,35,23.50
2008,07,16,14,36,23.60
2008,07,16,14,37,23.70
2008,07,16,14,38,23.80
2008,07,16,14,39,24.00
2008,07,16,14,40,24.10
2008,07,16,14,41,24.20
2008,07,16,14,42,24.20
2008,07,16,14,43,24.30
2008,07,16,14,44,24.30
2008,07,16,14,45,24.30
2008,07,16,14,46,24.30
2008,07,16,14,47,24.30
2008,07,16,14,48,24.30
2008,07,16,14,49,24.40
2008,07,16,14,50,24.30
2008,07,16,14,51,24.30
2008,07,16,14,52,24.30
2008,07,16,14,53,24.30
2008,07,16,14,54,24.20
2008,07,16,14,55,24.20
2008,07,16,14,56,24.20
2008,07,16,14,57,24.20
2008,07,16,14,58,24.20
2008,07,16,14,59,24.20
2008,07,16,15,00,24.10
2008,07,16,15,01,24.00
2008,07,16,15,02,23.90
2008,07,16,15,03,23.80
2008,07,16,15,04,23.70
2008,07,16,15,05,23.80
2008,07,16,15,06,23.80
2008,07,16,15,07,23.80
2008,07,16,15,08,23.70
2008,07,16,15,09,23.70
2008,07,16,15,10,23.70
2008,07,16,15,11,23.70
2008,07,16,15,12,23.70
2008,07,16,15,13,23.70
2008,07,16,15,14,23.70
2008,07,16,15,15,23.50
2008,07,16,15,16,23.50
2008,07,16,15,17,23.50
2008,07,16,15,18,23.60
2008,07,16,15,19,23.60
2008,07,16,15,20,23.70
2008,07,16,15,21,23.70
2008,07,16,15,22,23.70
2008,07,16,15,23,23.60
2008,07,16,15,24,23.50
2008,07,16,15,25,23.60
2008,07,16,15,26,23.60
2008,07,16,15,27,23.60
2008,07,16,15,28,23.60
2008,07,16,15,29,23.50
2008,07,16,15,30,23.50
2008,07,16,15,31,23.50
2008,07,16,15,32,23.50
2008,07,16,15,33,23.60
2008,07,16,15,34,23.60
2008,07,16,15,35,23.60
2008,07,16,15,36,23.70
2008,07,16,15,37,23.70
2008,07,16,15,38,23.70
2008,07,16,15,39,23.80
2008,07,16,15,40,23.80
2008,07,16,15,41,23.70
2008,07,16,15,42,23.70
2008,07,16,15,43,23.70
2008,07,16,15,44,23.70
2008,07,16,15,45,23.80
2008,07,16,15,46,23.80
2008,07,16,15,47,23.80
2008,07,16,15,48,23.90
2008,07,16,15,49,23.90
2008,07,16,15,50,24.00
2008,07,16,15,51,24.00
2008,07,16,15,52,23.90
2008,07,16,15,53,23.80
2008,07,16,15,54,23.80
2008,07,16,15,55,23.70
2008,07,16,15,56,23.70
2008,07,16,15,57,23.70
2008,07,16,15,58,23.80
2008,07,16,15,59,23.90
2008,07,16,16,00,24.00
2008,07,16,16,01,24.20
2008,07,16,16,02,24.30
2008,07,16,16,03,24.30
2008,07,16,16,04,24.40
2008,07,16,16,05,24.40
2008,07,16,16,06,24.30
2008,07,16,16,07,24.30
2008,07,16,16,08,24.30
2008,07,16,16,09,24.30
2008,07,16,16,10,24.20
2008,07,16,16,11,24.20
2008,07,16,16,12,24.10
2008,07,16,16,13,24.10
2008,07,16,16,14,24.10
2008,07,16,16,15,24.10
2008,07,16,16,16,24.10
2008,07,16,16,17,24.10
2008,07,16,16,18,24.10
2008,07,16,16,19,24.10
2008,07,16,16,20,24.00
2008,07,16,16,21,23.90
2008,07,16,16,22,23.80
2008,07,16,16,23,23.60
2008,07,16,16,24,23.50
2008,07,16,16,25,23.40
2008,07,16,16,26,23.40
2008,07,16,16,27,23.40
2008,07,16,16,28,23.40
2008,07,16,16,29,23.50
2008,07,16,16,30,23.40
2008,07,16,16,31,23.40
2008,07,16,16,32,23.40
2008,07,16,16,33,23.40
2008,07,16,16,34,23.30
2008,07,16,16,35,23.20
2008,07,16,16,36,23.20
2008,07,16,16,37,23.10
2008,07,16,16,38,23.10
2008,07,16,16,39,23.10
2008,07,16,16,40,23.10
2008,07,16,16,41,23.20
2008,07,16,16,42,23.20
2008,07,16,16,43,23.30
2008,07,16,16,44,23.30
2008,07,16,16,45,23.20
2008,07,16,16,46,23.20
2008,07,16,16,47,23.20
2008,07,16,16,48,23.20
2008,07,16,16,49,23.20
2008,07,16,16,50,23.30
2008,07,16,16,51,23.30
2008,07,16,16,52,23.30
2008,07,16,16,53,23.30
2008,07,16,16,54,23.30
2008,07,16,16,55,23.30
2008,07,16,16,56,23.30
2008,07,16,16,57,23.40
2008,07,16,16,58,23.40
2008,07,16,16,59,23.40
2008,07,16,17,00,23.40
2008,07,16,17,01,23.50
2008,07,16,17,02,23.60
2008,07,16,17,03,23.70
2008,07,16,17,04,23.80
2008,07,16,17,05,24.00
2008,07,16,17,06,24.10
2008,07,16,17,07,24.20
2008,07,16,17,08,24.30
2008,07,16,17,09,24.30
2008,07,16,17,10,24.40
2008,07,16,17,11,24.40
2008,07,16,17,12,24.40
2008,07,16,17,13,24.30
2008,07,16,17,14,24.20
2008,07,16,17,15,24.10
2008,07,16,17,16,24.10
2008,07,16,17,17,24.20
2008,07,16,17,18,24.20
2008,07,16,17,19,24.10